Sidney, NE

8:10 AM MDT on April 23, 2017 (GMT -0600)
Sidney Municipal

Weather History for KSNY - November, 2013

Change the Weather History Date:

Thursday, November 21, 2013

  Actual Average Record
Temperature  
Mean Temperature 17 °F 35 °F  
Max Temperature 26 °F 48 °F 72 °F (1960)
Min Temperature 8 °F 22 °F -4 °F (1977)
Degree Days  
Heating Degree Days 48 30  
Month to date heating degree days 525 532  
Since 1 July heating degree days 1186 1135  
Cooling Degree Days 0 0  
Month to date cooling degree days 0 0  
Year to date cooling degree days 918 830  
Moisture  
Dew Point 8 °F    
Average Humidity 79    
Maximum Humidity 84    
Minimum Humidity 73    
Precipitation  
Precipitation 0.01 in 0.02 in 1.22 in (1979)
Month to date precipitation 0.35 0.41  
Year to date precipitation 16.82 17.84  
Sea Level Pressure  
Sea Level Pressure 30.37 in    
Wind  
Wind Speed 18 mph (North)    
Max Wind Speed 30 mph    
Max Gust Speed 36 mph    
Visibility 3 miles    
Events Snow    
T = Trace of Precipitation, MM = Missing Value Source: NWS Daily Summary

Daily Weather History Graph

Daily Weather History Graph

Search for Another Location

Airport or City:

Trip Planner

Search our weather history database for the weather conditions in past years. The results will help you decide how hot, cold, wet, or windy it might be!

Date:

Astronomy

Nov. 21, 2013 Rise Set
Actual Time 6:47 AM MST 4:28 PM MST
Civil Twilight 6:17 AM MST 4:58 PM MST
Nautical Twilight 5:43 AM MST 5:32 PM MST
Astronomical Twilight 5:10 AM MST 6:04 PM MST
Moon 8:07 PM MST (11/21) 9:54 AM MST (11/21)
Length of Visible Light 10h 41m
Length of Day
9h 41m
Waning Gibbous, 85% of the Moon is Illuminated
Nov 21
Waning Gibbous
Nov 25
Last Quarter
Dec 2
New
Dec 9
First Quarter
Dec 17
Full

Hourly Weather History & Observations

Time (MST) Temp. Windchill Dew Point Humidity Pressure Visibility Wind Dir Wind Speed Gust Speed Precip Events Conditions
12:53 AM 19.9 °F 2.8 °F 15.1 °F 81% 30.15 in 10.0 mi North 24.2 mph 31.1 mph N/A   Overcast
1:31 AM 19.4 °F 2.5 °F 14.0 °F 80% 30.15 in 10.0 mi North 23.0 mph 31.1 mph N/A   Overcast
1:53 AM 19.0 °F 0.3 °F 12.9 °F 77% 30.17 in 10.0 mi North 28.8 mph - N/A   Overcast
2:42 AM 17.6 °F -0.6 °F 10.4 °F 73% 30.16 in 9.0 mi North 25.3 mph - 0.00 in   Overcast
2:53 AM 17.1 °F -1.0 °F 10.0 °F 74% 30.19 in 4.0 mi NNE 24.2 mph 35.7 mph 0.00 in Snow Light Snow
3:03 AM 15.8 °F -2.3 °F 10.4 °F 79% 30.17 in 2.0 mi North 23.0 mph 31.1 mph 0.00 in Snow Light Snow
3:10 AM 15.8 °F -1.5 °F 10.4 °F 79% 30.16 in 1.5 mi North 20.7 mph 34.5 mph 0.00 in Snow Light Snow
3:40 AM 15.8 °F -1.5 °F 10.4 °F 79% 30.17 in 1.8 mi North 20.7 mph 31.1 mph 0.00 in Snow Light Snow
3:49 AM 15.8 °F -0.6 °F 10.4 °F 79% 30.17 in 2.0 mi NNE 18.4 mph - 0.00 in Snow Light Snow
3:53 AM 16.0 °F -0.4 °F 10.9 °F 81% 30.22 in 2.0 mi NNE 18.4 mph 25.3 mph 0.00 in Snow Light Snow
4:17 AM 15.8 °F -1.1 °F 10.4 °F 79% 30.19 in 3.0 mi North 19.6 mph - 0.00 in Snow Light Snow
4:24 AM 15.8 °F -1.1 °F 10.4 °F 79% 30.19 in 3.0 mi North 19.6 mph 24.2 mph 0.00 in Snow Light Snow
4:45 AM 15.8 °F 0.9 °F 10.4 °F 79% 30.19 in 1.8 mi North 15.0 mph - 0.00 in Snow Light Snow
4:53 AM 15.1 °F -0.1 °F 10.9 °F 84% 30.28 in 1.2 mi North 15.0 mph - 0.00 in Snow Light Snow
5:00 AM 15.8 °F -2.3 °F 10.4 °F 79% 30.20 in 1.2 mi North 23.0 mph - 0.00 in Snow Light Snow
5:14 AM 14.0 °F -4.3 °F 10.4 °F 86% 30.22 in 1.2 mi North 21.9 mph 28.8 mph 0.00 in Snow Light Snow
5:33 AM 14.0 °F -4.3 °F 8.6 °F 79% 30.22 in 2.0 mi North 21.9 mph - 0.00 in Snow Light Snow
5:42 AM 12.2 °F -6.3 °F 8.6 °F 85% 30.23 in 4.0 mi North 20.7 mph - 0.00 in Snow Light Snow
5:53 AM 12.9 °F -5.3 °F 8.1 °F 81% 30.34 in 4.0 mi North 20.7 mph - 0.00 in Snow Light Snow
6:06 AM 12.2 °F -5.8 °F 8.6 °F 85% 30.24 in 2.0 mi North 19.6 mph 28.8 mph 0.00 in Snow Light Snow
6:17 AM 12.2 °F -5.3 °F 8.6 °F 85% 30.25 in 4.0 mi North 18.4 mph 26.5 mph 0.00 in Snow Light Snow
6:28 AM 12.2 °F -6.7 °F 8.6 °F 85% 30.26 in 2.0 mi North 21.9 mph 27.6 mph 0.00 in Snow Light Snow
6:34 AM 12.2 °F -6.3 °F 8.6 °F 85% 30.26 in 1.2 mi North 20.7 mph 28.8 mph 0.00 in Snow Light Snow
6:43 AM 12.2 °F -4.3 °F 8.6 °F 85% 30.26 in 1.0 mi North 16.1 mph - 0.00 in Snow Light Snow
6:53 AM 12.9 °F -2.2 °F 8.1 °F 81% 30.38 in 1.2 mi North 13.8 mph - 0.00 in Snow Light Snow
7:00 AM 12.2 °F -2.5 °F 8.6 °F 85% 30.27 in 0.8 mi North 12.7 mph - 0.00 in Snow Light Snow
7:21 AM 12.2 °F -4.3 °F 8.6 °F 85% 30.28 in 0.5 mi North 16.1 mph - 0.00 in Snow Snow
7:32 AM 12.2 °F -4.8 °F 8.6 °F 85% 30.28 in 0.5 mi North 17.3 mph - 0.01 in Snow Snow
7:53 AM 12.0 °F -5.6 °F 7.0 °F 80% 30.40 in 0.5 mi North 18.4 mph - 0.01 in Snow Snow
8:05 AM 12.2 °F -5.3 °F 8.6 °F 85% 30.30 in 0.5 mi North 18.4 mph - 0.00 in Snow Snow
8:23 AM 12.2 °F -5.3 °F 6.8 °F 79% 30.31 in 0.8 mi North 18.4 mph - 0.00 in Snow Light Snow
8:32 AM 12.2 °F -6.3 °F 6.8 °F 79% 30.31 in 1.0 mi North 20.7 mph - 0.00 in Snow Light Snow
8:42 AM 12.2 °F -5.3 °F 6.8 °F 79% 30.31 in 2.0 mi North 18.4 mph - 0.00 in Snow Light Snow
8:53 AM 12.9 °F -3.9 °F 7.0 °F 77% 30.46 in 1.8 mi North 17.3 mph - 0.00 in Snow Light Snow
9:03 AM 12.2 °F -5.3 °F 6.8 °F 79% 30.32 in 2.5 mi North 18.4 mph 26.5 mph 0.00 in Snow Light Snow
9:09 AM 12.2 °F -5.3 °F 8.6 °F 85% 30.32 in 1.5 mi North 18.4 mph - 0.00 in Snow Light Snow
9:20 AM 12.2 °F -6.3 °F 6.8 °F 79% 30.33 in 1.0 mi North 20.7 mph - 0.00 in Snow Light Snow
9:27 AM 12.2 °F -4.8 °F 6.8 °F 79% 30.34 in 1.2 mi North 17.3 mph - 0.00 in Snow Light Snow
9:35 AM 12.2 °F -7.1 °F 6.8 °F 79% 30.34 in 0.8 mi North 23.0 mph - 0.00 in Snow Light Snow
9:53 AM 12.9 °F -3.9 °F 7.0 °F 77% 30.52 in 0.5 mi North 17.3 mph - 0.00 in Snow Snow
10:32 AM 12.2 °F -5.3 °F 8.6 °F 85% 30.37 in 1.0 mi North 18.4 mph - 0.00 in Snow Light Snow
10:39 AM 12.2 °F -5.8 °F 6.8 °F 79% 30.37 in 2.0 mi North 19.6 mph - 0.00 in Snow Light Snow
10:53 AM 12.9 °F -4.4 °F 7.0 °F 77% 30.54 in 3.0 mi North 18.4 mph - 0.00 in Snow Light Snow
11:04 AM 14.0 °F -3.0 °F 6.8 °F 73% 30.37 in 1.5 mi North 18.4 mph - 0.00 in Snow Light Snow
11:21 AM 12.2 °F -6.3 °F 6.8 °F 79% 30.37 in 0.8 mi North 20.7 mph - 0.00 in Snow Light Snow
11:32 AM 12.2 °F -5.8 °F 6.8 °F 79% 30.37 in 1.0 mi North 19.6 mph - 0.00 in Snow Light Snow
11:41 AM 12.2 °F -6.3 °F 6.8 °F 79% 30.37 in 1.5 mi North 20.7 mph 25.3 mph 0.00 in Snow Light Snow
11:53 AM 12.9 °F -4.4 °F 7.0 °F 77% 30.55 in 1.5 mi North 18.4 mph - 0.00 in Snow Light Snow
12:14 PM 12.2 °F -6.7 °F 6.8 °F 79% 30.37 in 2.5 mi North 21.9 mph - 0.00 in Snow Light Snow
12:37 PM 12.2 °F -5.8 °F 6.8 °F 79% 30.36 in 1.0 mi North 19.6 mph - 0.00 in Snow Light Snow
12:45 PM 12.2 °F -6.3 °F 6.8 °F 79% 30.36 in 0.8 mi North 20.7 mph - 0.00 in Snow Light Snow
12:49 PM 12.2 °F -5.3 °F 6.8 °F 79% 30.36 in 1.2 mi North 18.4 mph - 0.00 in Snow Light Snow
12:53 PM 12.9 °F -4.4 °F 7.0 °F 77% 30.56 in 1.5 mi North 18.4 mph - 0.00 in Snow Light Snow
1:00 PM 12.2 °F -5.3 °F 6.8 °F 79% 30.37 in 2.0 mi North 18.4 mph - 0.00 in Snow Light Snow
1:16 PM 12.2 °F -5.8 °F 6.8 °F 79% 30.37 in 5.0 mi North 19.6 mph - 0.00 in   Overcast
1:46 PM 12.2 °F -6.7 °F 6.8 °F 79% 30.39 in 7.0 mi North 21.9 mph - 0.00 in   Overcast
1:53 PM 12.9 °F -5.7 °F 7.0 °F 77% 30.58 in 6.0 mi NNW 21.9 mph - 0.00 in Snow Light Snow
2:02 PM 12.2 °F -7.1 °F 6.8 °F 79% 30.39 in 6.0 mi North 23.0 mph - 0.00 in   Overcast
2:53 PM 12.9 °F -4.9 °F 7.0 °F 77% 30.61 in 8.0 mi North 19.6 mph - 0.00 in   Overcast
3:53 PM 12.9 °F -6.1 °F 6.1 °F 74% 30.63 in 5.0 mi North 23.0 mph - 0.00 in Snow Light Snow
4:53 PM 12.9 °F -6.1 °F 6.1 °F 74% 30.67 in 9.0 mi North 23.0 mph - 0.00 in   Overcast
5:53 PM 12.9 °F -4.9 °F 6.1 °F 74% 30.71 in 10.0 mi North 19.6 mph - N/A   Overcast
6:53 PM 12.9 °F -3.9 °F 7.0 °F 77% 30.74 in 10.0 mi North 17.3 mph - N/A   Overcast
7:53 PM 14.0 °F 0.5 °F 9.0 °F 80% 30.76 in 6.0 mi NNW 11.5 mph - 0.00 in Snow Light Snow
8:53 PM 14.0 °F -0.2 °F 9.0 °F 80% 30.75 in 10.0 mi NNW 12.7 mph - 0.00 in   Mostly Cloudy
9:53 PM 10.9 °F -1.8 °F 6.1 °F 81% 30.79 in 10.0 mi WNW 9.2 mph - N/A   Partly Cloudy
10:53 PM 10.0 °F 1.8 °F 3.9 °F 76% 30.79 in 10.0 mi WNW 4.6 mph - N/A   Partly Cloudy
11:53 PM 9.0 °F -3.2 °F 5.0 °F 84% 30.79 in 10.0 mi West 8.1 mph - N/A   Partly Cloudy